Terminal Aerodrome Forecast
Issued by NWS

Home | Current Version | Previous Version | Graphics & Text | Print | Product List | Glossary On
Versions: 1 2 3 4 5 6 7 8 9 10 11 12 13 14 15 16 17 18 19 20 21 22 23 24 25 26
000
FTUS42 KMHX 051120
TAFPGV
TAF
KPGV 051120Z 0512/0612 02004KT 3SM BR SCT010
     FM051300 04005KT P6SM SCT020 BKN035
     FM051800 04010KT P6SM VCTS SCT050CB
     FM060100 05005KT P6SM VCSH BKN040
     FM060700 01003KT 4SM BR SCT005 BKN015
      AMD LTD TO CLD VIS AND WIND=

USA.gov is the U.S. government's official web portal to all federal, state and local government web resources and services.